Regional Weather Roundup
Issued by NWS

Home | Current Version | Previous Version | Text Only | Print | Product List | Glossary On
Versions: 1 2 3 4 5 6 7 8 9 10 11 12 13 14 15 16 17 18 19 20 21 22 23 24 25 26 27 28 29 30 31 32 33 34 35 36 37 38 39 40 41 42 43 44 45 46 47 48 49 50
000
ASUS42 KFFC 220010
RWRGA
WEATHER ROUNDUP FOR GEORGIA
NATIONAL WEATHER SERVICE PEACHTREE CITY GA
700 PM EST SAT JAN 21 2017

NOTE: "FAIR" INDICATES FEW OR NO CLOUDS BELOW 12,000 FEET WITH NO
SIGNIFICANT WEATHER AND/OR OBSTRUCTIONS TO VISIBILITY.

* = USE WITH CAUTION. THE STATIONS MARKED WITH AN ASTERISK MAY NOT
REPORT WEATHER SUCH AS PRECIPITATION, FOG, OR THUNDER AND ARE NOT
QUALITY CONTROLLED BY NWS.

THE REMARK "TC" DENOTES TEMPERATURE READING IN DEGREES CELSIUS.

GAZ001>058-220100-
NORTH GEORGIA

CITY           SKY/WX    TMP DP  RH WIND       PRES   REMARKS
ATLANTA        MOCLDY    58  56  93 CALM      29.67R
6HR MIN TEMP:  57; 6HR MAX TEMP:  64; 6HR PCP: TRACE;

ATHENS         CLOUDY    59  57  93 NW3       29.67R
6HR MIN TEMP:  57; 6HR MAX TEMP:  60; 6HR PCP:  1.24;

CHAMBLEE       MOCLDY    57  55  93 CALM      29.67R
6HR MIN TEMP:  56; 6HR MAX TEMP:  63; 6HR PCP:  0.07;

PEACHTREE CITY MOCLDY    56  54  93 CALM      29.68R
6HR MIN TEMP:  56; 6HR MAX TEMP:  63;

ROME           MOCLDY    58  55  90 CALM      29.66R
6HR MIN TEMP:  58; 6HR MAX TEMP:  65;

WEST ATLANTA   PTCLDY    58  56  93 S3        29.67R
6HR MIN TEMP:  56; 6HR MAX TEMP:  64; 6HR PCP: TRACE;

GAINESVILLE    CLOUDY    58  55  90 N5        29.70R
6HR MIN TEMP:  55; 6HR MAX TEMP:  59; 6HR PCP:  0.40;

CARTERSVILLE   MOCLDY    58  56  93 CALM      29.67R
6HR MIN TEMP:  56; 6HR MAX TEMP:  64;



CITY           SKY/WX    TMP DP  RH WIND       PRES   REMARKS
DALTON*        MOCLDY    59  55  88 CALM      29.67R
LAWRENCEVILLE* MOCLDY    63  55  77 CALM      29.66R
MARIETTA       PTCLDY    57  55  94 CALM      29.67R
KENNESAW*      CLEAR     57  55  94 SE3       29.68R
CANTON*        CLOUDY    59  52  77 CALM      29.69R
$$

GAZ059>098-102>109-220100-
CENTRAL GEORGIA

CITY           SKY/WX    TMP DP  RH WIND       PRES   REMARKS
AUGUSTA-BUSH   MOCLDY    63  58  83 S7        29.67R
6HR MIN TEMP:  63; 6HR MAX TEMP:  68; 6HR PCP:  0.36;

AUGUSTA-DANIEL MOCLDY    63  56  78 S7        29.67R
6HR MIN TEMP:  63; 6HR MAX TEMP:  67; 6HR PCP:  0.34;

COLUMBUS       CLEAR     60  58  92 SW5       29.67R
6HR MIN TEMP:  59; 6HR MAX TEMP:  64; 6HR PCP:  0.06;

MACON          CLOUDY    60  57  89 SW5       29.69R
6HR MIN TEMP:  60; 6HR MAX TEMP:  63; 6HR PCP:  0.20;

ROBINS AFB     CLOUDY    60  58  93 CALM      29.69R


CITY           SKY/WX    TMP DP  RH WIND       PRES   REMARKS
LAGRANGE*      CLOUDY    60  60 100 CALM      29.69R
SYLVANIA*      CLOUDY   N/A N/A N/A S9        29.67F
MILLEDGEVILLE* CLOUDY    61  61 100 CALM      29.68R
$$

GAZ099>101-110>166-220100-
SOUTH GEORGIA

CITY           SKY/WX    TMP DP  RH WIND       PRES   REMARKS
SAVANNAH       RAIN      61  58  90 S8        29.77S
6HR MIN TEMP:  61; 6HR MAX TEMP:  79; 6HR PCP:  0.66;

VALDOSTA       CLOUDY    61  61 100 S6        29.75F THUNDER
6HR MIN TEMP:  60; 6HR MAX TEMP:  77; 6HR PCP:  1.53;

ALMA           CLOUDY    61  61 100 S10       29.74R
6HR MIN TEMP:  60; 6HR MAX TEMP:  77; 6HR PCP:  1.79;

ST SIMONS      LGT RAIN  62  61  96 S3        29.82F
6HR MIN TEMP:  62; 6HR MAX TEMP:  70; 6HR PCP:  0.99;

FT STEWART     LGT RAIN  61  59  94 SE7G17    29.72F FOG
ALBANY         PTCLDY    62  61  96 S7        29.72R
HUNTER AFB     CLOUDY    61  61 100 S6        29.77R
MOODY AFB      CLOUDY    61  60  97 SE9       29.73F
BRUNSWICK      RAIN      63  63 100 S7        29.82F


CITY           SKY/WX    TMP DP  RH WIND       PRES   REMARKS
BAINBRIDGE*    MOCLDY    63  61  94 SW6       29.71F
MOULTRIE*      PTCLDY    61  59  94 SE6       29.73R
VIDALIA*       CLOUDY    63  63 100 S7        29.70R
WAYCROSS*      RAIN      64  64 100 S8        29.75S
DOUGLAS*       CLOUDY    61  59  94 S7        29.74S
$$



USA.gov is the U.S. government's official web portal to all federal, state and local government web resources and services.